�N����,����,�~����,�C��,���x,�C��,����,���ϕ���,�ő�u�ԕ���,�ő厞����,���˗�,�I�_���x,�n�����x,�ő啗���N��,DTYPE
"23/05/16","00:10",0.0,14.8,86.9,1006.7,320.1,2.1,2.8,307.8,0.00,12.7,18.1,"00:07:42",1
"23/05/16","00:20",0.0,14.8,87.0,1006.4,312.5,2.6,4.1,343.9,0.00,12.7,17.8,"00:15:42",1
"23/05/16","00:30",0.0,14.7,87.1,1006.7,330.7,2.3,2.9,347.0,0.00,12.6,17.9,"00:25:08",1
"23/05/16","00:40",0.0,14.5,87.5,1006.7,335.7,2.2,3.6,343.2,0.00,12.5,17.8,"00:33:00",1
"23/05/16","00:50",0.0,14.4,87.9,1006.4,338.3,2.1,3.5,340.0,0.00,12.5,17.8,"00:43:00",1
"23/05/16","01:00",0.0,14.4,88.2,1006.7,337.7,2.2,3.7,319.9,0.00,12.5,17.9,"00:58:28",1
"23/05/16","01:10",0.0,14.3,88.4,1006.7,339.6,2.2,3.2,345.2,0.00,12.4,17.4,"01:05:06",1
"23/05/16","01:20",0.0,14.3,88.5,1006.7,338.9,2.3,3.6,340.7,0.00,12.5,17.7,"01:15:10",1
"23/05/16","01:30",0.0,14.4,88.8,1006.7,321.7,2.1,3.2,311.4,0.00,12.6,17.6,"01:27:54",1
"23/05/16","01:40",0.0,14.4,89.0,1006.7,338.1,2.2,3.4,352.4,0.00,12.7,17.5,"01:39:50",1
"23/05/16","01:50",0.0,14.6,89.2,1006.9,338.2,2.7,4.8,324.0,0.00,12.9,17.6,"01:40:30",1
"23/05/16","02:00",0.0,14.4,89.3,1007.1,334.0,2.2,3.7,356.4,0.00,12.7,17.6,"01:59:54",1
"23/05/16","02:10",0.0,14.5,89.4,1007.4,335.7,2.7,4.5,331.3,0.00,12.8,17.5,"02:00:34",1
"23/05/16","02:20",0.0,14.5,89.6,1006.9,341.7,2.6,4.1,336.8,0.00,12.9,17.3,"02:14:40",1
"23/05/16","02:30",0.0,14.4,89.7,1006.9,334.1,2.5,3.6,325.4,0.00,12.8,17.5,"02:29:58",1
"23/05/16","02:40",0.0,14.0,89.8,1006.7,340.8,1.7,2.9,352.9,0.00,12.4,17.5,"02:32:12",1
"23/05/16","02:50",0.0,13.7,90.0,1007.1,352.3,1.2,2.5,353.8,0.00,12.1,17.4,"02:40:38",1
"23/05/16","03:00",0.0,13.4,90.1,1007.1,322.1,1.0,1.6,319.8,0.00,11.9,17.2,"02:53:40",1
"23/05/16","03:10",0.0,13.3,90.4,1006.9,319.3,1.8,2.7,304.0,0.00,11.8,17.4,"03:07:10",1
"23/05/16","03:20",0.0,13.3,90.6,1006.9,327.3,1.5,2.6,311.3,0.00,11.8,17.2,"03:11:30",1
"23/05/16","03:30",0.0,12.8,90.7,1007.1,292.4,0.8,1.8,294.2,0.00,11.4,17.3,"03:25:06",1
"23/05/16","03:40",0.0,12.6,91.1,1007.1,308.0,1.2,1.8,312.7,0.00,11.2,17.3,"03:30:48",1
"23/05/16","03:50",0.0,12.4,91.3,1007.1,313.3,1.8,2.1,310.8,0.00,11.1,17.2,"03:42:50",1
"23/05/16","04:00",0.0,12.2,91.7,1007.1,313.8,1.7,2.7,316.2,0.00,10.9,17.1,"03:59:42",1
"23/05/16","04:10",0.0,12.4,92.0,1007.1,296.3,2.1,2.7,299.5,0.00,11.2,16.9,"04:00:48",1
"23/05/16","04:20",0.0,12.2,92.2,1007.4,306.2,2.3,2.9,316.8,0.00,11.0,17.3,"04:12:48",1
"23/05/16","04:30",0.0,12.3,92.4,1007.4,316.8,2.7,3.4,314.1,0.00,11.1,17.2,"04:23:00",1
"23/05/16","04:40",0.0,12.3,92.5,1007.4,325.6,2.3,3.4,311.5,0.00,11.2,17.0,"04:30:40",1
"23/05/16","04:50",0.0,12.2,92.6,1007.4,324.4,2.2,3.1,334.4,0.00,11.1,17.1,"04:42:26",1
"23/05/16","05:00",0.0,12.1,92.7,1007.4,314.0,2.1,2.8,316.4,0.00,11.0,17.0,"04:55:20",1
"23/05/16","05:10",0.0,12.1,92.9,1007.6,328.9,2.0,2.8,334.9,0.00,11.0,16.8,"05:05:12",1
"23/05/16","05:20",0.0,12.0,93.0,1007.8,326.1,2.1,2.6,320.1,0.00,10.9,16.8,"05:17:50",1
"23/05/16","05:30",0.0,11.8,93.2,1007.8,326.1,2.2,2.9,323.4,0.00,10.8,16.9,"05:27:56",1
"23/05/16","05:40",0.0,12.5,93.8,1008.3,323.0,2.7,4.1,327.4,0.00,11.6,16.9,"05:39:32",1
"23/05/16","05:50",0.0,12.8,93.8,1008.6,316.3,2.5,4.1,332.0,0.00,11.9,16.9,"05:47:16",1
"23/05/16","06:00",0.0,12.8,93.8,1008.3,319.1,3.2,4.3,313.4,0.00,11.9,16.5,"05:56:26",1
"23/05/16","06:10",0.0,12.7,94.0,1008.1,321.4,2.6,3.7,306.4,0.00,11.8,16.9,"06:00:32",1
"23/05/16","06:20",0.0,13.0,94.1,1008.3,311.6,2.2,4.3,315.8,0.00,12.1,16.7,"06:13:28",1
"23/05/16","06:30",0.0,13.0,94.1,1008.6,312.5,1.5,3.1,307.6,0.00,12.1,16.7,"06:21:44",1
"23/05/16","06:40",0.0,12.9,94.3,1009.0,285.3,0.8,1.7,312.3,0.01,12.0,16.5,"06:30:22",1
"23/05/16","06:50",0.0,13.0,94.4,1009.3,307.4,1.5,2.0,314.9,0.02,12.2,16.5,"06:46:34",1
"23/05/16","07:00",0.0,13.4,94.4,1009.3,325.6,1.8,2.2,305.8,0.04,12.6,16.7,"06:50:28",1
"23/05/16","07:10",0.0,14.0,94.0,1009.0,327.6,1.7,2.7,312.4,0.06,13.1,16.6,"07:03:58",1
"23/05/16","07:20",0.0,14.7,93.7,1009.0,337.3,1.1,2.2,344.3,0.08,13.7,16.7,"07:14:20",1
"23/05/16","07:30",0.0,15.6,92.4,1009.7,319.5,0.8,1.6,336.7,0.10,14.4,16.6,"07:28:48",1
"23/05/16","07:40",0.0,16.1,91.1,1009.5,341.8,0.8,1.8,305.8,0.13,14.7,16.6,"07:30:40",1
"23/05/16","07:50",0.0,16.9,89.0,1010.0,339.9,0.8,1.9,331.6,0.15,15.1,16.5,"07:42:32",1
"23/05/16","08:00",0.0,17.6,85.5,1010.2,340.9,0.7,1.9,316.6,0.17,15.2,16.6,"07:54:16",1
"23/05/16","08:10",0.0,18.1,82.0,1009.7,302.6,0.3,1.4,125.7,0.20,15.0,16.5,"08:03:28",1
"23/05/16","08:20",0.0,18.8,78.7,1009.7,12.1,0.6,1.3,335.3,0.22,15.1,16.5,"08:13:36",1
"23/05/16","08:30",0.0,19.1,76.6,1009.5,350.2,0.3,1.2,341.5,0.25,14.9,16.4,"08:29:36",1
"23/05/16","08:40",0.0,19.7,75.6,1009.3,284.5,0.3,1.1,104.1,0.27,15.3,16.4,"08:30:08",1
"23/05/16","08:50",0.0,19.6,74.0,1009.5,98.6,0.7,1.9,210.2,0.30,14.9,16.4,"08:47:04",1
"23/05/16","09:00",0.0,20.0,73.1,1009.0,63.5,0.6,1.8,120.6,0.32,15.1,16.6,"08:55:44",1
"23/05/16","09:10",0.0,20.2,72.6,1008.8,113.5,0.7,2.1,162.4,0.35,15.2,16.4,"09:00:40",1
"23/05/16","09:20",0.0,20.4,72.2,1008.6,118.3,1.0,2.1,128.3,0.37,15.3,16.6,"09:16:32",1
"23/05/16","09:30",0.0,20.8,71.3,1008.3,252.2,1.0,2.5,239.4,0.39,15.5,16.3,"09:27:28",1
"23/05/16","09:40",0.0,20.6,73.1,1008.1,211.7,1.2,2.7,194.5,0.41,15.7,16.5,"09:34:32",1
"23/05/16","09:50",0.0,21.2,72.8,1008.1,236.8,0.6,1.7,164.6,0.43,16.2,16.7,"09:44:56",1
"23/05/16","10:00",0.0,21.4,70.3,1008.3,185.4,1.1,2.2,215.6,0.45,15.8,16.4,"09:56:24",1
"23/05/16","10:10",0.0,22.2,70.3,1008.1,175.6,0.7,1.9,93.7,0.46,16.6,16.7,"10:04:00",1
"23/05/16","10:20",0.0,22.1,69.5,1007.6,182.5,1.1,2.6,202.8,0.48,16.3,16.7,"10:19:04",1
"23/05/16","10:30",0.0,22.5,68.5,1007.6,204.1,1.1,3.2,218.6,0.50,16.5,16.8,"10:20:02",1
"23/05/16","10:40",0.0,22.9,68.0,1007.6,128.4,1.1,2.5,110.9,0.51,16.7,16.8,"10:38:00",1
"23/05/16","10:50",0.0,23.3,67.1,1007.6,183.4,1.2,2.2,121.2,0.52,16.9,17.1,"10:41:36",1
"23/05/16","11:00",0.0,23.9,64.3,1007.1,146.0,1.0,2.4,121.1,0.54,16.8,17.0,"10:54:32",1
"23/05/16","11:10",0.0,23.6,65.7,1007.1,192.9,1.8,4.1,214.1,0.55,16.8,17.0,"11:05:44",1
"23/05/16","11:20",0.0,24.3,65.3,1006.9,168.1,1.1,2.8,159.8,0.56,17.4,17.2,"11:19:52",1
"23/05/16","11:30",0.0,24.5,65.3,1006.9,162.9,1.6,4.1,158.7,0.57,17.6,17.1,"11:28:00",1
"23/05/16","11:40",0.0,24.7,63.9,1006.7,133.7,1.5,3.1,133.8,0.58,17.5,17.2,"11:37:20",1
"23/05/16","11:50",0.0,25.4,64.7,1006.4,136.3,1.8,4.0,106.6,0.58,18.3,17.4,"11:45:44",1
"23/05/16","12:00",0.0,25.5,61.2,1006.4,151.1,1.7,3.9,126.7,0.59,17.5,17.2,"11:55:52",1
"23/05/16","12:10",0.0,25.8,53.2,1006.2,143.1,1.6,3.5,137.8,0.59,15.6,17.6,"12:03:12",1
"23/05/16","12:20",0.0,26.4,55.3,1006.2,187.1,2.0,4.5,238.7,0.60,16.8,17.6,"12:16:24",1
"23/05/16","12:30",0.0,26.6,45.2,1006.2,194.6,2.7,4.4,227.2,0.60,13.8,17.7,"12:25:12",1
"23/05/16","12:40",0.0,26.8,43.7,1006.0,216.3,2.3,4.5,237.5,0.59,13.5,17.5,"12:34:48",1
"23/05/16","12:50",0.0,27.0,42.4,1005.5,218.3,2.6,5.7,239.9,0.59,13.2,17.7,"12:44:40",1
"23/05/16","13:00",0.0,27.3,40.1,1005.0,213.8,2.5,4.5,228.8,0.60,12.6,17.8,"12:55:44",1
"23/05/16","13:10",0.0,27.4,39.1,1004.5,221.0,2.7,5.5,200.7,0.60,12.3,17.9,"13:08:40",1
"23/05/16","13:20",0.0,27.7,41.6,1004.5,214.0,2.8,5.2,210.6,0.59,13.5,18.0,"13:12:40",1
"23/05/16","13:30",0.0,28.1,40.7,1004.3,238.9,2.5,4.9,200.3,0.59,13.5,17.9,"13:21:04",1
"23/05/16","13:40",0.0,28.1,41.8,1004.5,231.5,2.6,5.6,236.4,0.58,14.0,18.2,"13:35:12",1
"23/05/16","13:50",0.0,28.1,40.2,1004.8,239.8,2.0,3.9,237.9,0.57,13.4,18.2,"13:45:44",1
"23/05/16","14:00",0.0,28.8,41.6,1004.5,228.4,1.2,4.0,255.9,0.57,14.5,18.3,"13:57:04",1
"23/05/16","14:10",0.0,28.7,39.1,1004.8,236.5,2.1,4.3,215.8,0.55,13.5,18.4,"14:07:04",1
"23/05/16","14:20",0.0,28.9,38.8,1005.0,262.5,1.6,3.5,236.9,0.54,13.5,18.5,"14:10:56",1
"23/05/16","14:30",0.0,29.3,45.8,1004.8,197.4,1.5,3.5,234.8,0.53,16.5,18.6,"14:25:28",1
"23/05/16","14:40",0.0,28.4,48.0,1004.3,190.4,2.8,5.9,205.3,0.51,16.4,18.6,"14:37:12",1
"23/05/16","14:50",0.0,28.2,49.2,1004.5,163.0,3.0,6.7,128.4,0.49,16.6,18.7,"14:46:08",1
"23/05/16","15:00",0.0,28.2,48.4,1004.1,187.6,3.0,6.0,194.0,0.48,16.3,18.7,"14:56:32",1
"23/05/16","15:10",0.0,28.2,48.5,1003.8,185.8,2.8,4.3,178.6,0.44,16.4,18.8,"15:09:04",1
"23/05/16","15:20",0.0,28.3,49.3,1003.8,189.4,3.1,6.2,217.4,0.45,16.7,18.9,"15:18:40",1
"23/05/16","15:30",0.0,28.4,48.4,1003.6,170.1,2.7,5.4,152.6,0.43,16.5,18.9,"15:22:00",1
"23/05/16","15:40",0.0,28.5,48.8,1003.8,169.3,2.6,5.1,134.2,0.41,16.7,18.8,"15:32:40",1
"23/05/16","15:50",0.0,28.7,49.0,1003.6,171.9,2.3,4.5,220.4,0.39,17.0,19.2,"15:43:44",1
"23/05/16","16:00",0.0,28.3,47.7,1003.6,186.9,3.4,4.8,173.8,0.37,16.2,19.1,"15:53:04",1
"23/05/16","16:10",0.0,28.7,47.5,1003.8,206.2,2.5,4.4,234.8,0.35,16.5,19.3,"16:03:04",1
"23/05/16","16:20",0.0,29.0,45.0,1004.1,291.0,1.5,3.9,235.2,0.32,15.9,19.2,"16:10:08",1
"23/05/16","16:30",0.0,29.6,41.0,1003.8,212.8,0.8,2.5,210.3,0.30,15.0,19.4,"16:27:44",1
"23/05/16","16:40",0.0,29.2,43.6,1003.8,285.3,2.1,4.2,348.0,0.28,15.6,19.4,"16:32:32",1
"23/05/16","16:50",0.0,29.0,43.0,1003.8,246.4,2.1,4.9,223.1,0.26,15.2,19.5,"16:43:44",1
"23/05/16","17:00",0.0,29.0,42.9,1003.8,272.8,1.8,4.2,236.0,0.23,15.2,19.5,"16:54:16",1
"23/05/16","17:10",8.2,28.5,43.2,1003.4,295.4,1.8,4.2,345.0,0.21,14.8,19.6,"17:00:40",1
"23/05/16","17:20",0.0,28.5,44.3,1003.1,250.9,2.0,4.0,239.3,0.18,15.2,19.7,"17:10:40",1
"23/05/16","17:30",0.0,28.4,42.3,1003.4,247.4,2.1,4.3,233.9,0.16,14.4,19.7,"17:20:24",1
"23/05/16","17:40",0.0,28.5,44.6,1003.8,244.8,2.0,4.9,238.3,0.14,15.3,19.7,"17:36:32",1
"23/05/16","17:50",0.0,28.4,43.7,1003.8,255.4,1.5,3.7,233.0,0.12,14.9,19.8,"17:40:24",1
"23/05/16","18:00",0.0,28.4,43.2,1003.8,260.9,1.6,3.2,267.8,0.08,14.7,19.7,"17:52:08",1
"23/05/16","18:10",0.0,27.5,44.8,1004.3,219.3,2.1,4.2,247.6,0.02,14.5,19.8,"18:00:08",1
"23/05/16","18:20",0.0,27.0,46.0,1004.3,218.7,2.8,4.7,217.2,0.02,14.4,20.0,"18:10:32",1
"23/05/16","18:30",0.0,26.8,45.6,1004.8,237.5,2.3,4.5,235.1,0.01,14.1,19.9,"18:27:04",1
"23/05/16","18:40",0.0,26.5,45.9,1004.8,228.0,2.5,4.8,219.5,0.01,14.0,19.9,"18:32:40",1
"23/05/16","18:50",0.0,26.2,45.5,1005.0,247.0,2.3,5.4,232.8,0.01,13.5,19.8,"18:41:12",1
"23/05/16","19:00",0.0,25.8,46.1,1005.5,262.4,1.7,3.4,245.3,0.00,13.4,19.8,"18:52:00",1
"23/05/16","19:10",0.0,25.5,46.7,1005.2,301.1,1.3,3.2,324.7,0.00,13.3,19.8,"19:08:44",1
"23/05/16","19:20",0.0,24.9,51.0,1005.5,343.0,2.0,3.7,334.2,0.00,14.1,19.8,"19:13:20",1
"23/05/16","19:30",0.0,24.1,53.3,1005.7,341.7,1.6,2.6,323.2,0.00,14.1,19.6,"19:27:04",1
"23/05/16","19:40",0.0,23.7,54.2,1005.7,334.7,1.3,2.7,327.2,0.00,13.9,19.8,"19:32:16",1
"23/05/16","19:50",0.0,23.2,54.9,1006.0,353.3,0.5,1.3,8.4,0.00,13.7,19.7,"19:45:04",1
"23/05/16","20:00",0.0,22.8,57.6,1006.2,10.8,0.6,1.6,334.4,0.00,14.0,19.7,"19:54:56",1
"23/05/16","20:10",0.0,22.2,62.0,1006.4,347.6,1.3,2.2,344.9,0.00,14.6,19.6,"20:04:16",1
"23/05/16","20:20",0.0,21.3,65.3,1006.4,344.0,1.0,2.1,344.6,0.00,14.6,19.7,"20:10:40",1
"23/05/16","20:30",0.0,20.6,66.9,1006.9,339.6,1.3,2.1,344.3,0.00,14.3,19.7,"20:29:28",1
"23/05/16","20:40",0.0,20.6,67.6,1006.9,343.4,2.0,3.2,345.8,0.00,14.4,19.5,"20:30:48",1
"23/05/16","20:50",0.0,20.2,68.5,1007.1,4.4,1.1,2.2,336.5,0.00,14.3,19.4,"20:47:52",1
"23/05/16","21:00",0.0,19.8,69.4,1007.6,307.4,1.0,2.0,343.5,0.00,14.1,19.4,"20:50:24",1
"23/05/16","21:10",0.0,19.7,70.6,1007.8,320.7,1.6,2.5,306.0,0.00,14.3,19.4,"21:01:04",1
"23/05/16","21:20",0.0,19.3,71.9,1007.8,291.5,1.3,1.9,332.3,0.00,14.1,19.3,"21:10:08",1
"23/05/16","21:30",0.0,19.2,72.7,1007.8,319.7,1.7,2.2,331.4,0.00,14.2,19.2,"21:24:56",1
"23/05/16","21:40",0.0,19.1,73.4,1008.6,309.9,1.6,2.0,340.1,0.00,14.3,19.3,"21:33:44",1
"23/05/16","21:50",0.0,19.1,73.6,1009.0,293.4,1.7,2.5,315.0,0.00,14.3,19.2,"21:45:12",1
"23/05/16","22:00",0.0,18.8,73.9,1008.8,319.5,1.0,1.7,278.2,0.00,14.1,19.0,"21:50:16",1
"23/05/16","22:10",0.0,18.6,74.7,1009.0,308.2,1.0,2.4,320.9,0.00,14.1,19.2,"22:08:00",1
"23/05/16","22:20",0.0,18.3,75.8,1009.3,307.9,1.3,2.0,328.8,0.00,14.0,19.0,"22:12:56",1
"23/05/16","22:30",0.0,18.1,76.7,1009.3,315.1,1.3,1.9,322.0,0.00,14.0,18.8,"22:22:24",1
"23/05/16","22:40",0.0,17.9,77.7,1009.5,320.5,1.5,2.0,314.4,0.00,14.0,19.1,"22:37:52",1
"23/05/16","22:50",0.0,17.7,78.2,1009.3,327.7,1.8,2.5,336.6,0.00,13.9,18.7,"22:46:08",1
"23/05/16","23:00",0.0,17.6,78.4,1009.5,325.4,1.8,2.5,332.1,0.00,13.8,18.8,"22:51:28",1
"23/05/16","23:10",0.0,17.5,78.8,1009.5,314.5,1.7,2.5,315.9,0.00,13.8,18.7,"23:00:24",1
"23/05/16","23:20",0.0,17.5,78.9,1009.7,309.6,1.7,2.5,334.6,0.00,13.8,18.7,"23:18:24",1
"23/05/16","23:30",0.0,17.3,79.5,1009.7,329.9,1.6,2.5,317.4,0.00,13.8,18.7,"23:20:32",1
"23/05/16","23:40",0.0,16.7,80.5,1009.7,299.1,0.8,1.6,319.3,0.00,13.4,18.7,"23:30:16",1
"23/05/16","23:50",0.0,16.8,81.1,1010.0,315.1,1.6,2.6,313.1,0.00,13.6,18.6,"23:43:52",1
"23/05/16","24:00",0.0,16.6,81.5,1010.0,316.2,0.8,1.3,319.9,0.00,13.5,18.7,"23:50:56",1
